FW7132 Weather Reports


Display with metric or nautical units.
time (UTC)temp
F
wind
direction
speed
MPH
gust
MPH
rain 1hr
in
rain 24hr
in
rain mn
in
humidity
%
barometer
mb
20260902024247 87 248 0.0 0.0 0.00 0.00 0.00 55 1012.7
20260902023747 88 248 0.0 0.0 0.00 0.00 0.00 55 1012.9
20260902023247 88 248 0.0 0.0 0.00 0.00 0.00 52 1012.8
20260902021246 90 248 0.0 0.0 0.00 0.00 0.00 44 1012.7
20260902015746 92 248 0.0 1.0 0.00 0.00 0.00 42 1012.8
20260902015245 92 213 0.0 0.0 0.00 0.00 0.00 43 1012.4
20260902014746 93 213 0.0 0.0 0.00 0.00 0.00 41 1012.5
20260902013745 94 213 0.0 1.0 0.00 0.00 0.00 39 1012.6
20260902013245 95 213 0.0 0.0 0.00 0.00 0.00 39 1012.6
20260902010244 96 240 0.0 3.0 0.00 0.00 0.00 37 1013.1
20260902005744 96 218 2.0 3.0 0.00 0.00 0.00 37 1013.1
20260902005244 96 289 1.0 2.0 0.00 0.00 0.00 36 1012.9
20260902004744 97 340 0.0 3.0 0.00 0.00 0.00 36 1013.0
20260902004244 97 278 0.0 3.0 0.00 0.00 0.00 37 1013.0
20260902003743 97 284 1.0 3.0 0.00 0.00 0.00 36 1013.1
20260902002743 97 300 2.0 4.0 0.00 0.00 0.00 36 1013.1
20260902002243 97 279 1.0 4.0 0.00 0.00 0.00 36 1013.2
20260902001743 97 157 1.0 5.0 0.00 0.00 0.00 37 1013.1
20260902001243 97 296 3.0 6.0 0.00 0.00 0.00 37 1013.2
20260902000742 97 278 1.0 6.0 0.00 0.00 0.00 37 1013.3
20260902000243 97 205 2.0 3.0 0.00 0.00 0.00 38 1013.2
20260901235742 97 274 1.0 5.0 0.00 0.00 0.00 38 1013.3
20260901234742 98 301 0.0 5.0 0.00 0.00 0.00 37 1013.4
20260901234242 98 144 4.0 5.0 0.00 0.00 0.00 37 1013.3
20260901233742 97 226 1.0 6.0 0.00 0.00 0.00 37 1013.3
20260901233241 97 181 2.0 6.0 0.00 0.00 0.00 37 1013.3
20260901232742 98 287 1.0 5.0 0.00 0.00 0.00 37 1013.3
20260901232242 98 296 3.0 4.0 0.00 0.00 0.00 37 1013.4
20260901231741 97 233 0.0 4.0 0.00 0.00 0.00 37 1013.4
20260901231241 97 170 1.0 4.0 0.00 0.00 0.00 37 1013.5
20260901230741 97 232 0.0 5.0 0.00 0.00 0.00 37 1013.6
20260901230241 97 278 2.0 5.0 0.00 0.00 0.00 36 1013.6
20260901225741 97 276 2.0 5.0 0.00 0.00 0.00 36 1013.6
20260901224740 98 278 1.0 4.0 0.00 0.00 0.00 36 1013.9
20260901224240 98 288 1.0 4.0 0.00 0.00 0.00 35 1013.8
20260901223740 98 264 1.0 4.0 0.00 0.00 0.00 36 1013.9
20260901223240 97 229 0.0 4.0 0.00 0.00 0.00 38 1013.8
20260901221739 96 134 0.0 4.0 0.00 0.00 0.00 38 1014.0
20260901221239 96 288 0.0 4.0 0.00 0.00 0.00 37 1014.1
20260901220239 97 210 2.0 5.0 0.00 0.00 0.00 38 1014.1
20260901213238 96 294 3.0 5.0 0.00 0.00 0.00 39 1014.5
20260901211737 95 78 0.0 6.0 0.00 0.00 0.00 40 1014.7
20260901211238 95 281 0.0 6.0 0.00 0.00 0.00 40 1014.7
20260901210737 95 193 0.0 7.0 0.00 0.00 0.00 41 1015.0
20260901205237 95 285 1.0 5.0 0.00 0.00 0.00 40 1015.4
20260901204737 95 299 2.0 7.0 0.00 0.00 0.00 42 1015.4
20260901203736 95 141 0.0 4.0 0.00 0.00 0.00 41 1015.6
20260901203236 95 180 2.0 4.0 0.00 0.00 0.00 41 1015.8
20260901202736 94 207 3.0 4.0 0.00 0.00 0.00 43 1015.8
20260901202236 93 42 1.0 4.0 0.00 0.00 0.00 42 1015.8
20260901201236 93 231 0.0 5.0 0.00 0.00 0.00 43 1016.0
20260901200736 93 291 3.0 7.0 0.00 0.00 0.00 44 1015.9
20260901200235 93 155 5.0 7.0 0.00 0.00 0.00 46 1016.0
20260901195735 92 298 1.0 5.0 0.00 0.00 0.00 44 1015.9
20260901194235 93 270 3.0 5.0 0.00 0.00 0.00 44 1016.2
20260901193735 93 276 2.0 5.0 0.00 0.00 0.00 46 1016.3
20260901193235 92 281 1.0 5.0 0.00 0.00 0.00 47 1016.3
20260901192734 92 139 1.0 5.0 0.00 0.00 0.00 45 1016.4
20260901192234 92 275 2.0 5.0 0.00 0.00 0.00 45 1016.5
20260901191734 92 244 2.0 6.0 0.00 0.00 0.00 48 1016.5
20260901191234 92 228 1.0 7.0 0.00 0.00 0.00 47 1016.7
20260901190734 93 203 2.0 7.0 0.00 0.00 0.00 47 1016.8
20260901190234 91 158 1.0 7.0 0.00 0.00 0.00 47 1016.8
20260901185734 92 221 1.0 7.0 0.00 0.00 0.00 47 1016.9
20260901184733 91 220 2.0 7.0 0.00 0.00 0.00 47 1017.0
20260901184233 91 193 1.0 6.0 0.00 0.00 0.00 46 1017.1
20260901183733 91 281 2.0 5.0 0.00 0.00 0.00 47 1017.1
20260901183233 92 135 3.0 5.0 0.00 0.00 0.00 45 1017.3
20260901182733 91 118 0.0 5.0 0.00 0.00 0.00 46 1017.3
20260901182233 91 120 2.0 5.0 0.00 0.00 0.00 47 1017.4
20260901181732 91 240 1.0 5.0 0.00 0.00 0.00 46 1017.4
20260901181233 90 277 1.0 9.0 0.00 0.00 0.00 48 1017.4
20260901180732 90 212 5.0 9.0 0.00 0.00 0.00 49 1017.4
20260901175231 89 77 1.0 6.0 0.00 0.00 0.00 47 1017.4
20260901174731 90 181 1.0 4.0 0.00 0.00 0.00 48 1017.6
20260901174231 89 135 3.0 4.0 0.00 0.00 0.00 50 1017.5
20260901173731 88 107 1.0 7.0 0.00 0.00 0.00 50 1017.6
20260901173231 89 197 1.0 7.0 0.00 0.00 0.00 49 1017.6
20260901172731 88 156 4.0 8.0 0.00 0.00 0.00 50 1017.7
20260901170731 88 234 1.0 8.0 0.00 0.00 0.00 51 1017.7
20260901170230 88 146 1.0 6.0 0.00 0.01 0.00 52 1017.7
20260901165730 88 221 1.0 6.0 0.00 0.01 0.00 52 1017.6
20260901165230 87 212 2.0 6.0 0.00 0.02 0.00 51 1017.6
20260901164730 87 204 0.0 6.0 0.00 0.02 0.00 51 1017.5
20260901164230 87 221 1.0 6.0 0.00 0.03 0.00 51 1017.4
20260901163729 87 210 0.0 7.0 0.00 0.03 0.00 52 1017.4
20260901162729 87 217 1.0 4.0 0.00 0.05 0.00 55 1017.4
20260901162229 87 245 3.0 4.0 0.00 0.06 0.00 53 1017.4
20260901161729 87 156 0.0 3.0 0.00 0.08 0.00 55 1017.3
20260901161229 87 272 0.0 3.0 0.00 0.09 0.00 54 1017.2
20260901160729 87 187 0.0 3.0 0.00 0.10 0.00 55 1017.2
20260901160228 87 202 2.0 2.0 0.00 0.11 0.00 54 1017.3
20260901155728 87 236 0.0 0.0 0.00 0.12 0.00 53 1017.1
20260901155228 86 224 0.0 1.0 0.00 0.14 0.00 54 1017.1
20260901154728 86 208 0.0 1.0 0.00 0.15 0.00 55 1017.1
20260901154228 85 314 0.0 1.0 0.00 0.15 0.00 54 1017.0
20260901153728 84 257 0.0 1.0 0.00 0.16 0.00 56 1016.7
20260901153228 84 351 0.0 1.0 0.00 0.16 0.00 55 1016.8
20260901152727 83 46 0.0 2.0 0.00 0.16 0.00 56 1016.9
20260901152227 83 277 0.0 2.0 0.00 0.16 0.00 58 1016.8
20260901151227 82 313 0.0 3.0 0.00 0.16 0.00 63 1016.8
20260901150727 81 278 0.0 1.0 0.00 0.16 0.00 64 1016.9
20260901150227 81 274 1.0 1.0 0.00 0.16 0.00 63 1016.8
20260901145727 81 282 0.0 1.0 0.00 0.16 0.00 63 1016.8
20260901144726 80 10 0.0 1.0 0.00 0.16 0.00 64 1016.7
20260901144226 80 12 0.0 1.0 0.00 0.16 0.00 65 1016.5
20260901143226 79 12 0.0 1.0 0.00 0.16 0.00 69 1016.4
20260901142725 78 12 0.0 1.0 0.00 0.16 0.00 70 1016.4
20260901142225 78 4 0.0 1.0 0.00 0.16 0.00 71 1016.3
20260901141725 78 9 0.0 1.0 0.00 0.16 0.00 70 1016.3
20260901141226 78 13 0.0 1.0 0.00 0.16 0.00 69 1016.3
20260901140725 78 13 0.0 0.0 0.00 0.16 0.00 69 1016.3
20260901140225 77 13 0.0 0.0 0.00 0.16 0.00 72 1016.2
20260901135755 76 13 0.0 0.0 0.00 0.16 0.00 75 1016.2
20260901135224 76 13 0.0 0.0 0.00 0.16 0.00 78 1016.5
20260901134225 74 323 0.0 0.0 0.00 0.17 0.00 84 1016.3
20260901133755 73 303 0.0 0.0 0.00 0.17 0.00 87 1016.3
20260901133224 72 303 0.0 0.0 0.00 0.18 0.00 89 1016.0
20260901132254 71 303 0.0 0.0 0.00 0.18 0.00 90 1015.9
20260901131754 71 303 0.0 0.0 0.00 0.18 0.00 90 1015.8
20260901131223 71 303 0.0 0.0 0.00 0.19 0.00 90 1015.8
20260901130724 71 303 0.0 0.0 0.00 0.19 0.00 89 1015.8
20260901130253 71 303 0.0 0.0 0.00 0.19 0.00 89 1015.8
20260901125753 71 303 0.0 0.0 0.00 0.20 0.00 89 1015.6
20260901125253 71 303 0.0 0.0 0.00 0.20 0.00 88 1015.8
20260901124723 71 303 0.0 0.0 0.00 0.20 0.00 88 1015.9
20260901124253 71 303 0.0 0.0 0.00 0.20 0.00 88 1015.8
20260901123722 71 303 0.0 0.0 0.00 0.20 0.00 88 1015.7
20260901123252 72 303 0.0 0.0 0.00 0.20 0.00 88 1015.8
20260901122752 72 303 0.0 0.0 0.00 0.20 0.00 88 1015.8
20260901122252 72 303 0.0 1.0 0.00 0.20 0.00 89 1015.7
20260901121752 72 303 0.0 1.0 0.00 0.20 0.00 89 1015.7
20260901121252 71 303 0.0 0.0 0.00 0.20 0.00 89 1015.7
20260901120221 71 303 0.0 0.0 0.00 0.20 0.00 90 1015.7
20260901115751 71 303 0.0 0.0 0.00 0.20 0.00 89 1015.6
20260901115251 71 303 0.0 0.0 0.00 0.20 0.00 89 1015.5
20260901114751 71 303 0.0 0.0 0.00 0.20 0.00 89 1015.5
20260901113751 72 303 0.0 0.0 0.00 0.20 0.00 89 1015.6
20260901113250 72 303 0.0 0.0 0.00 0.20 0.00 89 1015.7
20260901112250 72 303 0.0 0.0 0.00 0.20 0.00 88 1015.5
20260901111750 72 303 0.0 0.0 0.00 0.20 0.00 88 1015.6
20260901111250 72 303 0.0 0.0 0.00 0.21 0.00 87 1015.6
20260901110750 72 303 0.0 0.0 0.00 0.21 0.00 86 1015.7
20260901110250 72 303 0.0 0.0 0.00 0.21 0.00 86 1015.6
20260901105749 72 303 0.0 0.0 0.00 0.21 0.00 86 1015.7
20260901105249 72 303 0.0 0.0 0.00 0.21 0.00 86 1015.3
20260901104749 72 303 0.0 0.0 0.00 0.21 0.00 86 1015.3
20260901104249 73 303 0.0 0.0 0.00 0.21 0.00 85 1015.4
20260901103749 73 303 0.0 1.0 0.00 0.21 0.00 84 1015.6
20260901103249 73 303 0.0 1.0 0.00 0.21 0.00 84 1015.4
20260901102749 73 303 0.0 0.0 0.00 0.21 0.00 84 1015.6
20260901102248 72 303 0.0 1.0 0.00 0.21 0.00 84 1015.5
20260901101749 72 303 0.0 1.0 0.00 0.21 0.00 86 1015.6
20260901101248 72 299 0.0 0.0 0.00 0.21 0.00 86 1015.5
20260901100248 72 297 0.0 0.0 0.00 0.21 0.00 88 1015.6
20260901092247 73 297 0.0 0.0 0.00 0.23 0.00 84 1015.7
20260901091747 73 297 0.0 0.0 0.00 0.23 0.00 84 1015.6
20260901091247 73 297 0.0 0.0 0.00 0.23 0.00 83 1015.5
20260901090747 74 297 0.0 0.0 0.00 0.23 0.00 82 1015.7
20260901090247 73 297 0.0 0.0 0.00 0.24 0.00 81 1015.6
20260901085746 73 297 0.0 1.0 0.00 0.25 0.00 82 1015.5
20260901085246 73 297 0.0 1.0 0.00 0.25 0.00 83 1015.4
20260901084746 73 297 0.0 1.0 0.00 0.25 0.00 84 1015.3
20260901084246 73 110 0.0 0.0 0.00 0.25 0.00 84 1015.3
20260901083745 73 110 0.0 0.0 0.00 0.25 0.00 85 1015.3
20260901083245 73 110 0.0 0.0 0.00 0.27 0.00 83 1015.3
20260901082745 74 110 0.0 0.0 0.00 0.27 0.00 82 1015.3
20260901082245 74 110 0.0 0.0 0.00 0.29 0.00 82 1015.3
20260901081745 74 110 0.0 1.0 0.00 0.39 0.00 81 1015.3
20260901081245 74 27 0.0 1.0 0.00 0.53 0.00 81 1015.3
20260901080745 74 28 0.0 1.0 0.00 0.58 0.00 81 1015.3
20260901080244 74 28 1.0 1.0 0.00 0.58 0.00 81 1015.5
20260901075744 74 28 0.0 1.0 0.00 0.58 0.00 81 1015.4
20260901074744 74 120 0.0 1.0 0.00 0.58 0.00 81 1015.0
20260901074244 74 120 0.0 0.0 0.00 0.58 0.00 81 1015.0
20260901073243 74 120 0.0 1.0 0.00 0.58 0.00 81 1015.1
20260901072244 74 120 0.0 0.0 0.00 0.58 0.00 80 1014.9
20260901071743 74 120 0.0 0.0 0.00 0.58 0.00 80 1014.8
20260901070743 75 120 0.0 0.0 0.00 0.58 0.00 80 1015.0
20260901070243 75 120 0.0 0.0 0.00 0.58 0.00 79 1014.9
20260901065242 75 120 0.0 1.0 0.00 0.58 0.58 77 1014.8
20260901063742 76 124 0.0 1.0 0.00 0.58 0.58 77 1014.8
20260901063242 76 4 0.0 0.0 0.00 0.58 0.58 75 1014.7
20260901062742 76 4 0.0 0.0 0.00 0.58 0.58 73 1014.7
20260901062242 77 4 0.0 1.0 0.00 0.58 0.58 71 1014.7
20260901061741 77 4 0.0 1.0 0.00 0.58 0.58 71 1014.6
20260901061241 76 4 0.0 1.0 0.00 0.58 0.58 72 1014.5
20260901060741 76 38 0.0 1.0 0.00 0.58 0.58 72 1014.8
20260901060241 76 38 0.0 1.0 0.00 0.58 0.58 73 1014.9
20260901055741 76 39 1.0 1.0 0.00 0.58 0.58 75 1014.8
20260901055241 76 88 0.0 0.0 0.00 0.58 0.58 78 1014.7
20260901052240 77 88 0.0 0.0 0.00 0.58 0.58 72 1014.8
20260901051740 77 88 0.0 0.0 0.00 0.58 0.58 71 1014.7
20260901051239 77 88 0.0 1.0 0.00 0.58 0.58 70 1014.8
20260901050239 78 89 0.0 1.0 0.00 0.58 0.58 68 1014.8
20260901045739 78 89 0.0 2.0 0.00 0.58 0.58 67 1014.8
20260901045239 79 89 1.0 2.0 0.00 0.58 0.58 65 1014.9
20260901044739 79 115 0.0 4.0 0.00 0.58 0.58 64 1014.8
20260901043738 79 144 1.0 5.0 0.00 0.58 0.58 63 1014.5
20260901043239 79 113 3.0 5.0 0.00 0.58 0.58 63 1014.6
20260901042738 79 121 0.0 4.0 0.00 0.58 0.58 64 1014.7
20260901042238 79 117 2.0 4.0 0.00 0.58 0.58 63 1014.8
20260901040738 79 107 1.0 1.0 0.00 0.58 0.58 65 1014.7
20260901040237 79 113 0.0 1.0 0.00 0.58 0.58 64 1014.7
20260901035738 79 102 0.0 1.0 0.00 0.58 0.58 65 1014.7
20260901035237 80 93 0.0 3.0 0.00 0.58 0.58 65 1014.6
20260901034737 80 100 0.0 4.0 0.00 0.58 0.58 62 1014.3
20260901034237 80 92 1.0 5.0 0.00 0.58 0.58 60 1014.3
20260901033737 80 102 2.0 5.0 0.00 0.58 0.58 61 1014.4
20260901033237 80 115 1.0 5.0 0.00 0.58 0.58 61 1014.4
20260901032736 80 132 1.0 2.0 0.00 0.58 0.58 63 1014.3
20260901032237 80 125 0.0 2.0 0.00 0.58 0.58 62 1014.2
20260901031736 80 112 2.0 2.0 0.00 0.58 0.58 63 1014.1
20260901031236 80 121 1.0 2.0 0.00 0.58 0.58 64 1013.9
20260901030736 80 109 0.0 2.0 0.00 0.58 0.58 64 1013.9
20260901025736 80 138 0.0 2.0 0.00 0.58 0.58 66 1013.7
20260901025236 80 187 1.0 2.0 0.00 0.58 0.58 66 1013.8